sat.trackr.live / text

‹ back to catalog

STARLINK-11690 [DTC]

NORAD 64242 · 2025-119K

PAYLOAD ACTIVE UNKNOWN

§ Identity

Operator
Country
US
Launch date
2025-06-03
Launch site
AFETR
Launch vehicle
Mass (kg)
RCS (m²)

Purposes: comms

External: N2YO · Heavens-Above · Gunter

§ Orbital elements

Epoch: 2026-09-20T22:34:24.895488Z

Period
91.67 min
Inclination
43.0016°
Eccentricity
0.0002216
Mean motion
15.70862872 rev/d
Perigee alt
354.9 km
Apogee alt
357.9 km
Semi-major
6,734.6 km
B*
1.1313e-3
RAAN
112.1128°
Arg perigee
261.4118°
Mean anomaly
98.6499°
Rev number
7,595

§ Raw data

STARLINK-11690 [DTC]1 64242U 25119K   26263.94056592  .00147459  00000+0  11313-2 0  99952 64242  43.0016 112.1128 0002216 261.4118  98.6499 15.70862872 75951

JSON: /api/v1/satellites/64242 · /tle

For live sub-satellite position, see the globe view (requires WebGL).

§ Visibility from observer

Set your observer location to see the next 7 days of passes ≥ 10°. The values pass through the URL so the page stays shareable.

No JS? Fill the form by hand. The geolocation button needs JavaScript.